Погода в Байкове

Россия / Нижегородская область     54°46′36″N   44°51′09″E
темп.,
°C
ветер,
м/с
пор.,
м/с
влажн.,
%
обл.,
%
осадки,
мм/ч
давл.,
гПа
погр.,
м
13 мая, чт
чт1300:00+13юв4108731 0.1 1022222
03:00+12юв34935 0.1 102263
06:00+14в36890 0.0 1021173
09:00+19вюв610645 0.0 1020751
12:00+20вюв81266100 0.0 10191028
15:00+21вюв61071100 0.9 10171155
18:00+19ююв6118195 4.6 1017530
21:00+15ю33923 4.8 101750
14 мая, пт
пт1400:00+14ююз22945 0.0 101821
03:00+13ююз1294100 0.0 101911
06:00+15ю1190100 0.0 102061
09:00+19ююв2278100 0.0 1020382
12:00+22ююв34645 0.0 10201161
15:00+24ююв3555100 0.0 10191443
18:00+22вюв227145 0.0 101732
21:00+18ю3386100 0.0 101745
15 мая, сб
сб1500:00+17юв4986100 0.0 1016161
03:00+16ююв41283100 0.1 1016252
06:00+17ююв5157155 0.0 1016342
09:00+21ю71560100 0.0 1016584
12:00+24ю8155194 0.0 10161043
15:00+25ю713535 0.0 10151232
18:00+22ю613625 0.0 1015490
21:00+17ююв387940 0.0 1015128
16 мая, вс
вс1600:00+15ююз368355 0.0 101593
03:00+14ююз229018 0.0 101616
06:00+16ю118560 0.0 101671
09:00+21ю1271100 0.0 1016490
12:00+24ю3461100 0.0 1016968
15:00+25ю67555 0.0 10151230
18:00+22ю49675 0.0 1015298
21:00+18ююз3377100 0.0 101639
17 мая, пн
пн1700:00+16зсз228776 0.0 101711
03:00+15всв1190100 0.0 101711
06:00+17всв128599 0.0 101776
09:00+22вюв2366100 0.0 1017436
12:00+26юв235328 0.0 1017908
15:00+27ю344713 0.0 10161150
18:00+26всв22566 0.0 101614
21:00+20ю22705 0.0 101711